Starlink 30162

operational
NORAD ID: 57446 Int'l Des: 2023-105 Owner: SPXS Country: US Constellation: starlink
LEOCIRCULAR

About Starlink 30162

Description loading...

Live Position

Loading 3D Globe...

Upcoming Passes

Altitude History

Altitude vs Time

uPlot chart will show altitude changes over time

Two-Line Element Set

1 57446U 23105S 26035.12240737 .00000587 00000-0 58525-4 0 9998
2 57446 43.0035 71.0931 0000974 274.1085 85.9646 15.02530577140661
Epoch: Feb 4, 2026 • Age: 7 hours

Current Status

Altitude 562.0 km
Velocity 7.58 km/s
Sub-Earth Point -15.53°S, 21.19°W
Launch Date Jul 24, 2023
Age 2.5 years
Type internet

Technical Details

Classification Payload
Mass 730.00 kg
Dry Mass 700.00 kg
Total Mass 730.00 kg
Length 0.30 m
Diameter 4.10 m
Span 29.00 m
Shape Box + pan
Manufacturer SPXS
Bus Type Starlink V2M
Phase Status In Orbit
Owner/State SPXS/US

Large Constellations

Loading constellations...